Regional Weather Roundup
Issued by NWS San Angelo, TX

Home | Current Version | Previous Version | Text Only | Print | Product List | Glossary On
Versions: 1 2 3 4 5 6 7 8 9 10 11 12 13 14 15 16 17 18 19 20 21 22 23 24 25 26 27 28 29 30 31 32 33 34 35 36 37 38 39 40 41 42 43 44 45 46 47 48 49 50
000
ASUS44 KSJT 290011
RWRSJT
WEST CENTRAL TEXAS REGIONAL WEATHER ROUNDUP
NATIONAL WEATHER SERVICE SAN ANGELO TX
700 PM CDT SAT MAY 28 2016

NOTE: "FAIR" INDICATES FEW OR NO CLOUDS BELOW 12,000 FEET WITH NO
SIGNIFICANT WEATHER AND/OR OBSTRUCTIONS TO VISIBILITY.

TXZ049-054-064>066-071>073-076>078-098-099-113-114-127-128-139-140-
154-155-168>170-290100
...LOCATIONS ACROSS WEST CENTRAL TEXAS...

CITY           SKY/WX    TMP DP  RH WIND       PRES   REMARKS
SAN ANGELO     SUNNY     88  65  46 SE10      29.89F
ABILENE        CLOUDY    84  63  49 S13G25    29.93R
DYESS AFB      CLOUDY    82  60  46 SE21      29.90S
JUNCTION       CLOUDY    74  65  73 N24G46    29.90R THUNDER
SWEETWATER     MOSUNNY   88  47  24 SE12      29.95S
BROWNWOOD      CLOUDY    86  70  58 SE8       29.91F
COLEMAN        PTCLDY    88  65  45 SE8       29.92F
SONORA         SUNNY     88  66  48 S9G15     29.94S
OZONA          FAIR      86  63  45 S10       29.94S
BRADY          NOT AVBL
$$

TEXAS PANHANDLE/OKLAHOMA PANHANDLE

CITY           SKY/WX    TMP DP  RH WIND       PRES   REMARKS
AMARILLO       MOSUNNY   78  46  32 SE17      30.01R
BORGER         SUNNY     84  40  21 E7G18     29.98F
CANADIAN       SUNNY     83  46  27 CALM      29.97S
DALHART        SUNNY     79  40  24 SE9       30.01S
DUMAS          CLEAR     83  40  21 SE7       30.00S
GUYMON         NOT AVBL
HEREFORD       PTCLDY    84  35  17 S6        30.01S
PAMPA          CLEAR     80  46  30 SE9       30.02R
PERRYTON       SUNNY     83  42  23 W7        29.99R
$$

SOUTHERN PANHANDLE/SOUTH PLAINS/ROLLING PLAINS

CITY           SKY/WX    TMP DP  RH WIND       PRES   REMARKS
LUBBOCK        MOSUNNY   86  38  18 E13       29.96S
SNYDER           N/A     73  62  68 NE14G20   29.94F
CHILDRESS      SUNNY     85  49  28 E7        29.95S
SEMINOLE       CLEAR     91  21   8 S5        29.94S
$$

PERMIAN BASIN

CITY           SKY/WX    TMP DP  RH WIND       PRES   REMARKS
MIDLAND        MOSUNNY   90  55  30 S18G28    29.90F
ODESSA         SUNNY     91  54  28 S16       29.92S
WINK           SUNNY     92  52  25 SE12      29.87S
$$

FAR WEST/SOUTHWEST MOUNTAINS/TRANS PECOS

CITY           SKY/WX    TMP DP  RH WIND       PRES   REMARKS
ALPINE         CLEAR     89  26  10 S10G18    30.02S
DRYDEN           N/A     89  67  47 SE17G24   29.87S
EL PASO        MOSUNNY   91   0   3 SW12      29.92S
FORT STOCKTON  NOT AVBL
GUADALUPE PASS NOT AVBL
MARFA          SUNNY     87  27  11 S10       30.01S
PECOS          CLEAR     94  50  22 E15G22    29.84F
$$

DALLAS/FORT WORTH METROPLEX

CITY           SKY/WX    TMP DP  RH WIND       PRES   REMARKS
DFW AIRPORT    PTSUNNY   86  74  67 SE14      29.92R
FTW MEACHAM    MOSUNNY   87  71  58 S13       29.91R
DAL-EXECUTIVE  MOSUNNY   83  74  74 SE9       29.92S
GRAND PRAIRIE    N/A     86  72  62 SE6       29.93S
ADDISON        MOSUNNY   84  75  74 MISG      29.94S
MESQUITE       PTCLDY    82  73  74 SE9       29.93S
LANCASTER      CLEAR     83  73  73 E7        29.94R
$$

NORTH CENTRAL TEXAS

CITY           SKY/WX    TMP DP  RH WIND       PRES   REMARKS
SHRMAN/DENISON CLEAR     79  67  66 SE10      29.95S
GAINESVILLE    MOSUNNY   82  71  68 SE9       29.96R
BRIDGEPORT     CLEAR     87  70  56 SE6       29.93S
DENTON         SUNNY     85  72  65 E7        29.92R
WAXAHACHIE     PTCLDY    83  74  72 SE9       29.95R
GRANBURY       CLEAR     88  73  61 SE9G16    29.92S
$$

WESTERN NORTH TEXAS

CITY           SKY/WX    TMP DP  RH WIND       PRES   REMARKS
WICHITA FALLS  SUNNY     87  64  46 E8        29.91S
VERNON         CLEAR     87  49  26 E8        29.94S
BRECKENRIDGE   MOCLDY    90  60  36 SE5       29.91S
COMANCHE       CLOUDY    83  69  64 S7        29.93S
$$

CENTRAL AND SOUTH CENTRAL TEXAS

CITY           SKY/WX    TMP DP  RH WIND       PRES   REMARKS
AUSTIN/BERGSTM MOSUNNY   87  71  58 SE12G18   29.90S
WACO           SUNNY     85  73  67 SE13      29.91S
HILLSBORO      CLEAR     83  73  69 SE8       29.93S
TEMPLE         SUNNY     87  73  62 SE10      29.92S
KILLEEN-GRAY   SUNNY     86  72  62 SE13      29.91S
FORT HOOD      SUNNY     87  70  58 SE12      29.90S
GEORGETOWN     SUNNY     88  70  55 SE9       29.90F
LAGO VISTA     FAIR      85  70  61 SE8       29.94S
SAN MARCOS     MOSUNNY   86  73  66 SE14      29.90F
NEW BRAUNFELS  SUNNY     87  73  62 SE14      29.88F
RANDOLPH AFB   SUNNY     86  75  70 SE14      29.89F
SAN ANTONIO    PTSUNNY   87  73  62 SE15      29.89F
STINSON        CLOUDY    87  73  62 SE16      29.86F
PLEASANTON     NOT AVBL
LA GRANGE        N/A     87  76  69 S8        29.90F
GIDDINGS       CLEAR     84  72  67 SE5       29.96S
$$

EAST TEXAS

CITY           SKY/WX    TMP DP  RH WIND       PRES   REMARKS
PARIS          PTSUNNY   81  64  57 S10       29.97R
CLARKSVILLE    NOT AVBL
TYLER          MOSUNNY   85  71  63 SE10      29.95F
LONGVIEW       MOSUNNY   83  72  69 SE5       29.96S
PALESTINE      CLEAR     85  73  66 S7        29.96R
NACOGDOCHES    SUNNY     86  73  66 SE7       29.96R
$$

TEXAS HILL COUNTRY AND EDWARDS PLATEAU

CITY           SKY/WX    TMP DP  RH WIND       PRES   REMARKS
LLANO          CLEAR     88  72  58 SE6       29.92S
HORSESHOE BAY  FAIR      87  71  57 SE9       29.91S
KERRVILLE      LGT RAIN  83  72  69 SE8       29.91F
FREDERICKSBRG  MOSUNNY   85  67  55 SE8       29.91F
ROCKSPRINGS    CLEAR     84  70  61 S14G22    29.94F
HONDO          TSTM      78  72  81 SE21G30   29.88F
UVALDE         CLEAR     89  72  55 SE8       29.85S
DEL RIO        PTSUNNY   90  69  50 E14       29.82R
$$

SOUTHEAST TEXAS

CITY           SKY/WX    TMP DP  RH WIND       PRES   REMARKS
COLLEGE STN    SUNNY     86  73  65 SE15      29.93S
CALDWELL       CLEAR     84  73  70 SE12      29.95F
CROCKETT       CLOUDY    86  72  62 S5        29.98R
BRENHAM        SUNNY     87  73  62 S8        29.94S
HUNTSVILLE     MOSUNNY   88  69  53 S5        29.95R
CONROE         SUNNY     86  70  58 SE8       29.95R
HOUSTON BUSH   MOSUNNY   83  72  69 SE13      29.94S
HOUSTON HOBBY  MOSUNNY   85  71  63 S12       29.95R
PERLAND        SUNNY     86  70  58 S8        29.98R
WHARTON        CLEAR     84  71  64 SE9       29.95S
$$

THE UPPER TEXAS COAST

CITY           SKY/WX    TMP DP  RH WIND       PRES   REMARKS
ORANGE         CLEAR     84  65  52 S6        30.00S
PORT ARTHUR    SUNNY     83  70  64 SE9       29.98R
GALVESTON      MOSUNNY   81  75  82 E9        29.98S
ANGLETON       PTSUNNY   84  72  67 SE9       29.96S
BAY CITY       MOCLDY    84  73  68 S12       29.96S
$$

TEXAS COASTAL BEND, RIO GRANDE PLAINS DEEP SOUTH TEXAS

CITY           SKY/WX    TMP DP  RH WIND       PRES   REMARKS
VICTORIA       MOSUNNY   84  73  69 SE16      29.92F
BEEVILLE       CLOUDY    84  76  78 SE12G22   29.90S
ROCKPORT       MOSUNNY   83  74  74 SE16G24   29.90S
PORT ARANSAS   MOCLDY    82  77  83 SE15G21   29.91S
PORT LAVACA    PTCLDY    83  75  78 SE12      29.93F
CORPUS CHRISTI MOSUNNY   84  75  74 SE17      29.89S
KINGSVILLE NAS MOSUNNY   84  77  79 SE18      29.87S
COTULLA        MOSUNNY   94  71  47 SE20      29.81F
LAREDO         MOSUNNY   93  73  52 E17G23    29.81F
BROWNSVILLE    SUNNY     85  74  69 E17       29.86F
PORT ISABEL    SUNNY     85  75  72 E18       29.86F
HEBBRONVILLE   PTCLDY    89  72  57 SE15G22   29.86S
MCALLEN        SUNNY     90  73  57 SE22      29.85R
WESLACO        MOSUNNY   89  69  50 SE15G23   29.84S
FALFURRIAS     PTCLDY    87  74  64 E15G23    29.85S
EDINBURG       CLEAR     91  72  53 SE18      29.83F
$$




USA.gov is the U.S. government's official web portal to all federal, state and local government web resources and services.